Flag for Canada Weather past 2 weeks in Niagara Falls, Ontario, Canada

Now
9 °F

Light snow. Mostly cloudy.


Feels Like: -6 °F
Forecast: 6 / 15 °F
Wind: 12 mph from Northwest

Location: Niagara Falls International Airport

Current Time: Mar 5, 2015 at 11:57:28 AM

Latest Report: Mar 5, 2015 at 10:53 AM


Visibility: 2 mi

Pressure: 30.39 "Hg

Humidity: 73%

Dew point: 2 °F

Location of Niagara FallsLocation

Historic Weather in Niagara Falls — Graph

°F

Niagara Falls temperature yesterday

Maximum temperature yesterday: 34 °F (at 12:53 AM)
Minimum temperature yesterday: 25 °F (at 10:53 PM)
Average temperature yesterday: 30 °F

Past Weeks' High & Low Weather Summary

 TemperatureHumidityPressure
High37 °F (Mar 3, 7:53 PM)96% (Feb 22, 2:03 AM)30.86 "Hg (Feb 22, 2:03 AM)
Low-8 °F (Feb 20, 5:59 AM)42% (Feb 24, 2:53 PM)29.60 "Hg (Mar 3, 6:53 PM)
Average12 °F74%30.23 "Hg
* Reported Feb 18 9:53 AM — Mar 5 9:53 AM, Niagara Falls, Weather by CustomWeather, © 2015

Note: Actual official high and low records may vary slightly from our data, if they occured in-between our weather recording intervals... More about our weather records

Advertising

Niagara Falls weather history for previous 24 hours

 ConditionsComfort  
Time TempWeatherWind HumidityBarometerVisibility
9:53 AM
Thu, Mar 5
9 °FLight snow. Overcast.10 mph73%30.37 "Hg5 mi
8:53 AM8 °FMostly cloudy.12 mph69%30.37 "Hg10 mi
7:53 AM8 °FBroken clouds.12 mph69%30.34 "Hg10 mi
7:01 AM9 °FMostly cloudy.10 mph64%30.26 "Hg10 mi
5:53 AM10 °FClear.15 mph58%30.31 "Hg10 mi
4:53 AM11 °FClear.14 mph56%30.30 "Hg10 mi
3:53 AM13 °FPassing clouds.13 mph59%30.27 "Hg10 mi
2:53 AM15 °FCold.15 mph64%30.26 "Hg9 mi
1:53 AM16 °FOvercast.20 mph67%30.23 "Hg10 mi
12:53 AM18 °FLight snow. Mostly cloudy.17 mph65%30.18 "Hg6 mi
12:02 AM20 °FLight snow. Overcast.18 mph82%30.09 "Hg1 mi
10:53 PM
Wed, Mar 4
25 °FMostly cloudy.20 mph66%30.08 "Hg10 mi
9:53 PM27 °FPassing clouds.14 mph69%30.04 "Hg10 mi
8:53 PM28 °FLight snow. Mostly cloudy.12 mph75%30.01 "Hg5 mi
7:53 PM30 °FLight snow. Overcast.5 mph72%29.97 "Hg10 mi
6:53 PM30 °FMostly cloudy.8 mph75%29.97 "Hg10 mi
5:53 PM29 °FMore clouds than sun.8 mph72%29.94 "Hg10 mi
4:53 PM31 °FOvercast.14 mph61%29.93 "Hg10 mi
3:53 PM31 °FOvercast.15 mph64%29.92 "Hg10 mi
2:53 PM32 °FMostly cloudy.17 mph64%29.92 "Hg7 mi
1:53 PM31 °FMostly cloudy.16 mph67%29.90 "Hg7 mi
12:53 PM31 °FMore clouds than sun.17 mph67%29.90 "Hg7 mi
11:53 AM31 °FMore clouds than sun.17 mph69%29.91 "Hg7 mi
Weather by CustomWeather, © 2015

See weather overviewHow to use our weather pages